| time (UTC) | temp F | wind direction | speed knots | gust knots | rain 1hr in | rain 24hr in | rain mn in | humidity % | barometer mb |
| 20260505111743 | 72 | 177 | 6.1 | 0.0 | 0.00 | 0.00 | 0.00 | 79 | 4352.0 |
| 20260505110735 | 72 | 135 | 1.7 | 0.0 | 0.00 | 0.00 | 0.00 | 100 | 8.1 |
| 20260505102135 | 74 | 187 | 4.3 | 0.0 | 0.00 | 0.00 | 0.00 | 70 | 5325.0 |
| 20260505101659 | 74 | 187 | 4.3 | 0.0 | 0.00 | 0.00 | 0.00 | 70 | 5325.0 |
| 20260505100651 | 72 | 126 | 3.5 | 0.0 | 0.00 | 0.00 | 0.00 | 36 | 4173.0 |
| 20260505095645 | 74 | 160 | 5.2 | 0.0 | 0.00 | 0.00 | 0.00 | 58 | 4352.0 |
| 20260505094640 | 74 | 202 | 1.7 | 0.0 | 0.00 | 0.00 | 0.00 | 7 | 4352.0 |
| 20260505093639 | 0 | 264 | 0.0 | 0.0 | 0.00 | 0.00 | 0.00 | ||
| 20260505093637 | 73 | 264 | 0.0 | 0.0 | 0.00 | 0.00 | 0.00 | 89 | 4352.0 |
| 20260505092631 | 73 | 160 | 2.6 | 0.0 | 0.00 | 0.00 | 0.00 | 2 | 4352.0 |
| 20260505091627 | 75 | 150 | 4.3 | 0.0 | 0.00 | 0.00 | 0.00 | 98 | 5811.2 |
| 20260505090621 | 73 | 149 | 7.0 | 0.0 | 0.00 | 0.00 | 0.00 | 66 | 1137.6 |
| 20260505085617 | 71 | 191 | 6.1 | 0.0 | 0.00 | 0.00 | 0.00 | 12 | 4864.0 |
| 20260505084612 | 68 | 185 | 0.0 | 0.0 | 0.00 | 0.00 | 0.00 | 2 | 9.2 |
| 20260505083606 | 70 | 150 | 0.9 | 0.0 | 0.00 | 0.00 | 0.00 | 98 | 9.2 |
| 20260505082602 | 72 | 323 | 0.0 | 0.0 | 0.00 | 0.00 | 0.00 | 58 | 1123.2 |
| 20260505080554 | 70 | 151 | 2.6 | 0.0 | 0.00 | 0.00 | 0.00 | 2 | 1123.2 |
| 20260505075548 | 70 | 151 | 4.3 | 0.0 | 0.00 | 0.00 | 0.00 | 3 | 1123.2 |
| 20260505074542 | 68 | 160 | 0.9 | 0.0 | 0.00 | 0.00 | 0.00 | 53 | 17.0 |
| 20260505073539 | 69 | 144 | 0.9 | 0.0 | 0.00 | 0.00 | 0.00 | 3 | 4352.0 |
| 20260505072532 | 69 | 70 | 3.5 | 0.0 | 0.00 | 0.00 | 0.00 | 34 | 4352.0 |
| 20260505071524 | 68 | 184 | 2.6 | 0.0 | 0.00 | 0.00 | 0.00 | 79 | 4096.2 |
| 20260505070519 | 68 | 156 | 2.6 | 0.0 | 0.00 | 0.00 | 0.00 | 57 | 4096.2 |
| 20260505065515 | 70 | 156 | 0.0 | 0.0 | 0.00 | 0.00 | 0.00 | 58 | 4096.2 |
| 20260505064510 | 70 | 163 | 0.9 | 0.0 | 0.00 | 0.00 | 0.00 | 70 | 4864.0 |
| 20260505063505 | 70 | 113 | 0.0 | 0.0 | 0.00 | 0.00 | 0.00 | 3 | 66.8 |
| 20260505062458 | 69 | 150 | 0.9 | 0.0 | 0.00 | 0.00 | 0.00 | 2 | 66.8 |
| 20260505061455 | 66 | 66 | 0.0 | 0.0 | 0.00 | 0.00 | 0.00 | 98 | 66.8 |
| 20260505060448 | 65 | 140 | 1.7 | 0.0 | 0.00 | 0.00 | 0.00 | 2 | 1868.8 |
| 20260505055440 | 63 | 187 | 2.6 | 0.0 | 0.00 | 0.00 | 0.00 | 12 | 1868.8 |
| 20260505054435 | 61 | 165 | 3.5 | 0.0 | 0.00 | 0.00 | 0.00 | 98 | 819.2 |
| 20260505053431 | 61 | 146 | 1.7 | 0.0 | 0.00 | 0.00 | 0.00 | 12 | 195.2 |
| 20260505052427 | 60 | 182 | 2.6 | 0.0 | 0.00 | 0.00 | 0.00 | 57 | 4096.7 |
| 20260505051423 | 59 | 192 | 1.7 | 0.0 | 0.00 | 0.00 | 0.00 | 43 | 4096.7 |
| 20260505050418 | 59 | 164 | 2.6 | 0.0 | 0.00 | 0.00 | 0.00 | 100 | 822.8 |
| 20260505041401 | 56 | 157 | 1.7 | 0.0 | 0.00 | 0.00 | 0.00 | 100 | 179.2 |
| 20260505040354 | 56 | 170 | 1.7 | 0.0 | 0.00 | 0.00 | 0.00 | 60 | 179.2 |
| 20260505035351 | 56 | 187 | 2.6 | 0.0 | 0.00 | 0.00 | 0.00 | 100 | 179.2 |
| 20260505034348 | 55 | 161 | 3.5 | 0.0 | 0.00 | 0.00 | 0.00 | 100 | 179.2 |
| 20260505033346 | 54 | 163 | 2.6 | 0.0 | 0.00 | 0.00 | 0.00 | 98 | 179.2 |
| 20260505032343 | 53 | 171 | 2.6 | 0.0 | 0.00 | 0.00 | 0.00 | 12 | 179.2 |
| 20260505031341 | 53 | 161 | 3.5 | 0.0 | 0.00 | 0.00 | 0.00 | 100 | 179.2 |
| 20260505030338 | 52 | 167 | 2.6 | 0.0 | 0.00 | 0.00 | 0.00 | 2 | 52.4 |
| 20260505025335 | 52 | 163 | 3.5 | 0.0 | 0.00 | 0.00 | 0.00 | 3 | 12.1 |
| 20260505024333 | 52 | 167 | 1.7 | 0.0 | 0.00 | 0.00 | 0.00 | 3 | 12.1 |
| 20260505023331 | 53 | 146 | 0.0 | 0.0 | 0.00 | 0.00 | 0.00 | 5 | 12.1 |
| 20260505022329 | 53 | 161 | 1.7 | 0.0 | 0.00 | 0.00 | 0.00 | 53 | 12.1 |
| 20260505021326 | 54 | 185 | 1.7 | 0.0 | 0.00 | 0.00 | 0.00 | 5 | 375.4 |
| 20260505020322 | 54 | 160 | 1.7 | 0.0 | 0.00 | 0.00 | 0.00 | 100 | 375.4 |
| 20260505015313 | 54 | 180 | 3.5 | 0.0 | 0.00 | 0.00 | 0.00 | 52 | 4352.0 |
| 20260505014308 | 54 | 165 | 0.0 | 0.0 | 0.00 | 0.00 | 0.00 | 100 | 4352.0 |
| 20260505013304 | 55 | 187 | 0.0 | 0.0 | 0.00 | 0.00 | 0.00 | 3 | 327.4 |
| 20260505012256 | 55 | 230 | 0.9 | 0.0 | 0.00 | 0.00 | 0.00 | 55 | 13.0 |
| 20260505011252 | 54 | 180 | 0.9 | 0.0 | 0.00 | 0.00 | 0.00 | 19 | 13.0 |
| 20260505010250 | 54 | 187 | 0.0 | 0.0 | 0.00 | 0.00 | 0.00 | 13 | 13.0 |
| 20260505005243 | 55 | 187 | 0.9 | 0.0 | 0.00 | 0.00 | 0.00 | 2 | 13.0 |
| 20260505004237 | 55 | 199 | 1.7 | 0.0 | 0.00 | 0.00 | 0.00 | 2 | 13.0 |
| 20260505003235 | 55 | 165 | 1.7 | 0.0 | 0.00 | 0.00 | 0.00 | 37 | 13.0 |
| 20260505002224 | 55 | 180 | 0.0 | 0.0 | 0.00 | 0.00 | 0.00 | 54 | |
| 20260505001213 | 55 | 157 | 0.9 | 0.0 | 0.00 | 0.00 | 0.00 | 100 | 4352.0 |
| 20260505000208 | 55 | 168 | 1.7 | 0.0 | 0.00 | 0.00 | 0.00 | 55 | |
| 20260504235200 | 56 | 195 | 0.9 | 0.0 | 0.00 | 0.00 | 0.00 | 30 | |
| 20260504234157 | 56 | 171 | 2.6 | 0.0 | 0.00 | 0.00 | 0.00 | 100 | 0.7 |
| 20260504233153 | 56 | 136 | 0.0 | 0.0 | 0.00 | 0.00 | 0.00 | 12 | 0.7 |
| 20260504232145 | 56 | 180 | 0.9 | 0.0 | 0.00 | 0.00 | 0.00 | 2 | 0.4 |
| 20260504231142 | 56 | 189 | 0.0 | 0.0 | 0.00 | 0.00 | 0.00 | 100 | 0.4 |
| 20260504230136 | 56 | 127 | 0.0 | 0.0 | 0.00 | 0.00 | 0.00 | 54 | 0.4 |
| 20260504225130 | 56 | 105 | 0.0 | 0.0 | 0.00 | 0.00 | 0.00 | 37 | 3689.9 |
| 20260504224126 | 57 | 170 | 0.0 | 0.0 | 0.00 | 4.09 | 0.00 | 100 | 3689.9 |
| 20260504223123 | 58 | 184 | 0.9 | 0.0 | 0.00 | 0.00 | 0.00 | 25 | 3689.9 |
| 20260504222115 | 58 | 184 | 1.7 | 0.0 | 0.00 | 0.00 | 0.00 | 98 | 3689.9 |
| 20260504221110 | 57 | 175 | 0.0 | 0.0 | 0.00 | 0.00 | 0.00 | 12 | 3689.9 |
| 20260504220104 | 58 | 201 | 0.0 | 0.0 | 0.00 | 0.00 | 0.00 | 4 | 537.6 |
| 20260504215056 | 57 | 139 | 0.0 | 0.0 | 0.00 | 0.00 | 0.00 | 96 | |
| 20260504214053 | 58 | 216 | 0.0 | 0.0 | 0.00 | 0.00 | 0.00 | 12 | |
| 20260504213048 | 58 | 170 | 0.0 | 0.0 | 0.00 | 0.00 | 0.00 | 100 | |
| 20260504212040 | 58 | 137 | 0.0 | 0.0 | 0.00 | 0.00 | 0.00 | 12 | 4352.0 |
| 20260504211036 | 58 | 188 | 0.0 | 0.0 | 0.00 | 0.00 | 0.00 | 79 | 4352.0 |
| 20260504210030 | 58 | 232 | 1.7 | 0.0 | 0.00 | 0.00 | 0.00 | 100 | 8.1 |
| 20260504205025 | 58 | 171 | 0.0 | 0.0 | 0.00 | 0.00 | 0.00 | 12 | 8.1 |
| 20260504204020 | 59 | 182 | 0.0 | 0.0 | 0.00 | 0.00 | 0.00 | 4 | |
| 20260504203015 | 59 | 181 | 0.9 | 0.0 | 0.00 | 0.00 | 0.00 | 4 | |
| 20260504202008 | 59 | 180 | 0.0 | 0.0 | 0.00 | 0.00 | 0.00 | 79 | 4096.0 |
| 20260504201003 | 59 | 174 | 0.0 | 0.0 | 0.00 | 0.00 | 0.00 | 96 | 4096.0 |
| 20260504195958 | 59 | 187 | 0.0 | 0.0 | 0.00 | 0.00 | 0.00 | 100 | 3871.4 |
| 20260504194949 | 59 | 171 | 0.0 | 0.0 | 0.00 | 0.00 | 0.00 | 100 | 0.1 |
| 20260504193945 | 60 | 52 | 0.0 | 0.0 | 0.00 | 0.00 | 0.00 | 77 | 0.1 |
| 20260504192939 | 60 | 112 | 0.0 | 0.0 | 0.00 | 0.00 | 0.00 | 100 | 0.1 |
| 20260504191933 | 61 | 188 | 0.0 | 0.0 | 0.00 | 0.00 | 0.00 | 31 | 0.1 |
| 20260504190920 | 61 | 78 | 0.9 | 0.0 | 0.00 | 0.00 | 0.00 | 8 | |
| 20260504185913 | 62 | 116 | 0.0 | 0.0 | 0.00 | 0.00 | 0.00 | 12 | |
| 20260504184907 | 62 | 189 | 5.2 | 0.0 | 0.00 | 0.00 | 0.00 | 77 | |
| 20260504183903 | 63 | 210 | 2.6 | 0.0 | 0.00 | 0.00 | 0.00 | 4 | 4352.0 |
| 20260504182855 | 62 | 187 | 0.0 | 0.0 | 0.00 | 0.00 | 0.00 | 8 | |
| 20260504181850 | 63 | 175 | 3.5 | 0.0 | 0.00 | 0.00 | 0.00 | 96 | |
| 20260504180846 | 63 | 191 | 0.0 | 0.0 | 0.00 | 0.00 | 0.00 | 39 | |
| 20260504175839 | 63 | 126 | 0.0 | 0.0 | 0.00 | 0.00 | 0.00 | 8 | |
| 20260504174833 | 64 | 109 | 0.9 | 0.0 | 0.00 | 0.00 | 0.00 | 5 | 4352.0 |
| 20260504173829 | 65 | 229 | 0.0 | 0.0 | 0.00 | 0.00 | 0.00 | 29 | 4352.0 |
| 20260504172823 | 65 | 217 | 2.6 | 0.0 | 0.00 | 0.00 | 0.00 | 16 | 4352.0 |
| 20260504171818 | 66 | 226 | 0.9 | 0.0 | 0.00 | 0.00 | 0.00 | 77 | 4352.0 |
| 20260504170813 | 67 | 247 | 0.9 | 0.0 | 0.00 | 0.00 | 0.00 | 12 | 4352.0 |
| 20260504150706 | 72 | 177 | 0.9 | 0.0 | 0.00 | 0.00 | 0.00 | 94 | 72.4 |
| 20260504140629 | 72 | 258 | 4.3 | 0.0 | 0.00 | 0.00 | 0.00 | 23 | |
| 20260504130551 | 72 | 194 | 2.6 | 0.0 | 0.00 | 0.00 | 0.00 | 23 | 0.6 |